Showing default

INTELSAT 11 (PAS 11), 32253

Orbit data source: Space-Track

INTELSAT 11 (PAS 11), 32253 is a payload satellite owned by Intelsat Ltd (US) (US) in GEO that was launched on Fri, 05 Oct 2007 UTC via an ARIANE 5GS launch vehicle from the French Guiana (FRGUI). Payload-class satellites include a variety of spacecraft equipped with specific instruments for various scientific and technological missions. These include communications satellites like Starlink; space stations such as the ISS; scientific satellites like the Hubble; Earth observation satellites from companies like Planet Labs, Umbra, and HawkEye 360; GPS; miniature CubeSats for education and research; and military/defense satellites.

Loading next visibility...
Identifier
32253, 2007-044B
Orbit
GEO
Country
Flag of UnknownUnknown / ITSO
Related business
Manufacturer
OSC
Mission
On reserve Commercial Communications
Bus & Motor
OSC STAR 2.4, BT-4
Mass
2,450 kg wet, 1,145 kg dry
Launch date (UTC)
2007-10-05 (18 years ago)
Launch vehicle
ARIANE 5GS
Launch site
French Guiana (FRGUI)
Object type
Payload
Rocket body
Debris
Shape & HBR
Box + 2 Pan, Unknown HBR
Radar Cross Section
24.482 m², Large (>1 m²)

Expand to show TLE details & history
Last TLE update: 13 hours ago

TLE from 13 hours ago
0 INTELSAT 11 (PAS 11)
1 32253U 07044B   25260.63125384  .00000046  00000-0  00000-0 0  9997
2 32253   2.8505  82.0209 0007909 121.6745 264.6962  0.99047882 65754
Epoch: 2025-09-17T15:09Z
TLE epoch observation values (Epoch: 2025-09-17T15:09:00.331Z)
Latitude
1.24344°
Longitude
-115.78575°
Altitude
36,135.565 km
Speed
3.062 km/s
True Right ascension
07h 13m 04s
True Declination
1° 14' 32"
Sunlit
Object was in daylight at epoch
Visualization orbit readout
Latitude
Unknown
Longitude
Unknown
Altitude
Unknown
Speed
Unknown
Apparent Right ascension
Unknown
Apparent Declination
Unknown
Sunlit
N/A
Visualization observer readout
Local Sidereal Time
21:22:05
Azimuth
Unknown
Elevation
Unknown
Doppler factor
Unknown
Orbital elements
Apogee altitude
36,167.909 km
Perigee altitude
36,100.663 km
Semi-major axis
42,512.423 km
Eccentricity
0.00079
Inclination
2.8505°
RAAN
82.0209°
Arg. of periapsis
121.6745°
True anomaly
264.60597°
Mean anomaly
264.6962°
Eccentric anomaly
264.65108°
Mean motion
0.24761 °/min
Orbital period
1,453.9 mins
BSTAR
0
Loading maneuver chart data...
Computing Atmospheric mass density...
Loading historical data...
Loading historical data...
Loading historical data...
Loading historical data...
Loading historical data...
Loading historical data...
Loading historical data...
Other satellites on launch #44 in the year 2007 (2007-10-05 UTC)

Documentation

Showing up to 5 results
|